This is the latest recevied weather packets stored in our database for station/object KD9NSC. If no packets are shown the sender has not sent any weather packets the latest 10 day(s).
| Time | Temp. | Humidity | Pressure | Rain* | Wind** | Luminosity | Snow |
|---|---|---|---|---|---|---|---|
| 1777896745 | 12.22° C | 82% | 1006.4 hPa | 0 mm | - | 41 W/m² | - |
| 1777896443 | 11.67° C | 83% | 1006.5 hPa | 0 mm | - | 30 W/m² | - |
| 1777896140 | 11.67° C | 83% | 1006.2 hPa | 0 mm | - | 28 W/m² | - |
| 1777895838 | 11.67° C | 83% | 1006.5 hPa | 0 mm | - | 20 W/m² | - |
| 1777895535 | 11.67° C | 83% | 1006.3 hPa | 0 mm | - | 25 W/m² | - |
| 1777895232 | 10.56° C | 86% | 1006.3 hPa | 0 mm | - | 33 W/m² | - |
| 1777894930 | 10° C | 87% | 1006.4 hPa | 0 mm | - | 23 W/m² | - |
| 1777894627 | 9.44° C | 88% | 1006.4 hPa | 0 mm | - | 17 W/m² | - |
| 1777894323 | 9.44° C | 89% | 1006.4 hPa | 0 mm | - | 12 W/m² | - |
| 1777894021 | 8.89° C | 90% | 1006.5 hPa | 0 mm | - | 10 W/m² | - |
| 1777893711 | 8.89° C | 90% | 1006.6 hPa | 0 mm | - | 8 W/m² | - |
| 1777893408 | 8.89° C | 90% | 1006.7 hPa | 0 mm | - | 7 W/m² | - |
| 1777893103 | 8.89° C | 90% | 1006.4 hPa | 0 mm | - | 6 W/m² | - |
| 1777892801 | 8.89° C | 90% | 1006.7 hPa | 0 mm | - | 5 W/m² | - |
| 1777892497 | 8.89° C | 90% | 1006.7 hPa | 0 mm | - | 4 W/m² | - |
| 1777892192 | 8.89° C | 90% | 1006.6 hPa | 0 mm | - | 3 W/m² | - |
| 1777891890 | 8.89° C | 89% | 1006.4 hPa | 0 mm | - | 2 W/m² | - |
| 1777891587 | 8.89° C | 89% | 1006.6 hPa | 0 mm | - | 1 W/m² | - |
| 1777891283 | 8.89° C | 89% | 1006.8 hPa | 0 mm | - | 1 W/m² | - |
| 1777890978 | 8.89° C | 89% | 1006.7 hPa | 0 mm | - | 0 W/m² | - |
| 1777890673 | 8.89° C | 89% | 1006.6 hPa | 0 mm | - | 0 W/m² | - |
| 1777890369 | 8.89° C | 89% | 1006.5 hPa | 0 mm | - | 0 W/m² | - |
| 1777890065 | 8.89° C | 89% | 1006.5 hPa | 0 mm | - | 0 W/m² | - |
| 1777889763 | 8.89° C | 88% | 1006.4 hPa | 0 mm | - | 0 W/m² | - |
| 1777889460 | 8.89° C | 89% | 1006.6 hPa | 0 mm | - | 0 W/m² | - |
* Rain latest hour (hover to see other rain measurements)
** Current wind speed in m/s (hover to see current wind gust speed)